Location: River House Observatory
(37.8577°N, 76.3548°W)
Time: 01:28:33
(UTC-05:00)

ISS - Visible Passes

Search period start: 22 February 2018 00:00
Search period end: 04 March 2018 00:00
Orbit: 403 x 407 km, 51.6° (Epoch: 22 February)

Date Brightness Start Highest point End Pass type
(mag) Time Alt. Az. Time Alt. Az. Time Alt. Az.
23 Feb -0.4 05:59:57 10° SE 06:00:49 11° SE 06:01:41 10° ESE visible
25 Feb -1.7 05:49:43 10° SSW 05:52:33 28° SE 05:55:24 10° ENE visible
26 Feb -0.9 04:58:42 10° SSE 05:00:29 14° SE 05:02:17 10° E visible
27 Feb -3.7 05:41:24 12° SW 05:44:22 77° SE 05:47:39 10° NE visible
28 Feb -2.6 04:51:52 35° SSE 04:52:11 35° SE 04:55:13 10° ENE visible
01 Mar -0.3 04:02:09 11° E 04:02:09 11° E 04:02:21 10° E visible
01 Mar -3.3 05:34:50 25° W 05:36:18 41° NW 05:39:26 10° NE visible
02 Mar -2.8 04:44:56 42° NE 04:44:56 42° NE 04:47:15 10° NE visible
03 Mar -2.2 05:27:35 19° NW 05:28:20 21° NNW 05:30:55 10° NNE visible
